{"data":{"norad_id":68036,"intl_designator":"2026-040X","name":"STARLINK-36906","alt_names":[],"object_type":"PAYLOAD","status":"ACTIVE","operator":null,"country":"US","launch_date":"2026-03-01","launch_site_code":"AFWTR","launch_vehicle":null,"mission":null,"orbit_class":"UNKNOWN","rcs_meters":null,"size_class":null,"mass_kg":null,"dimensions":null,"purposes":["comms"],"wikipedia_slug":null,"has_3d_model":false,"image_url":null,"decayed_at":null,"tle_current":{"epoch":"2026-05-24T19:46:00.094944Z","epoch_age_seconds":100845,"freshness":"FRESH","line1":"1 68036U 26040X   26144.82361221  .00014864  00000+0  46169-3 0  9998","line2":"2 68036  97.2847  93.8823 0001688  96.5824 263.5611 15.33455089 13137","mean_motion":15.33455089,"eccentricity":0.0001688,"inclination_deg":97.2847,"raan_deg":93.8823,"arg_perigee_deg":96.5824,"mean_anomaly_deg":263.5611,"bstar":0.00046169,"rev_number":1313,"period_min":93.905586823482,"perigee_km":464.35794873045,"apogee_km":466.66836502341,"semimajor_km":6843.6501568769,"source":"CELESTRAK","updated_at":"2026-05-25T13:38:21.808886Z"}}}